Neillsville, WI (54456)

10:54 AM CDT on September 02, 2015 (GMT -0500)
central wisconsin | | Change Station
CLOSE
Current Station
Personal Weather Station
Location: Pittsville, WI
Elevation: 945 ft
Nearby Weather Stations

Elev 945 ft 44.35 °N, 90.34 °W | Updated 6 seconds ago

Partly Cloudy
Partly Cloudy
79.9 °F
Feels Like 83 °F
N
1.8
Wind Variable Wind from South
Gusts 2.5 mph

Today
High -- | Low -- °F
--% Chance of Precip.
Yesterday
High -- | Low -- °F
Precip. -- in
6:25 AM 7:37 PM
Waning Gibbous, 79% visible
Pressure 29.98 in
Visibility 6.0 miles
Clouds Clear
Heat Index 83 °F
Dew Point 71 °F
Humidity 75%
Rainfall 0.00 in
Snow Depth Not available.
UV 3.0 out of 12
Pollen 10.20 out of 12
Air Quality Not available.
Flu Activity Not available.
METAR KMFI 021454Z AUTO 22005KT 6SM HZ CLR 24/21 A3000 RMK AO2 SLP151 T02440211 58000
Pressure 29.98 in
Visibility 6.0 miles
Clouds Clear
Heat Index 83 °F
Dew Point 71 °F
Humidity 75%
Rainfall 0.00 in
Snow Depth Not available.
UV 3.0 out of 12
Pollen 10.20 out of 12
Air Quality Not available.
Flu Activity Not available.
METAR KMFI 021454Z AUTO 22005KT 6SM HZ CLR 24/21 A3000 RMK AO2 SLP151 T02440211 58000

10-Day Weather Forecast

×

Almanac

Astronomy

Sep. 02, 2015 Rise Set
Actual Time
Civil Twilight
Nautical Twilight
Astronomical Twilight
Moon
Length of Visible Light
Length of Day
Tomorrow will be .
, % of the Moon is Illuminated

Today's Extremes

State Highs State Lows

Community

WunderPhotos

Upload Photos

1,851,774 photos uploaded!

WunderBlogs® & News

Nearby

Air Quality

  Air Quality AQ Index Pollutant
Not available.

Snow Depth

Station Depth Elevation

Earthquake Activity

City Distance Mag. Time & Date
Minimum magnitude displayed is 2.5.

Coastal Water Temperatures

Place Temperature

Stations

Nearby Weather Stations

Station Location Temp. Windchill Dew Point Humidity Wind Precip. Elev Updated Type